sat.trackr.live / text

‹ back to catalog

STARLINK-37641

NORAD 69445 · 2026-127C

PAYLOAD ACTIVE UNKNOWN

§ Identity

Operator
Country
US
Launch date
2026-06-08
Launch site
AFETR
Launch vehicle
Mass (kg)
RCS (m²)

Purposes: comms

External: N2YO · Heavens-Above · Gunter

§ Orbital elements

Epoch: 2026-09-20T03:58:54.395040Z

Period
93.85 min
Inclination
53.1567°
Eccentricity
0.0001020
Mean motion
15.34422624 rev/d
Perigee alt
461.9 km
Apogee alt
463.3 km
Semi-major
6,840.8 km
B*
5.7654e-4
RAAN
167.0780°
Arg perigee
72.9281°
Mean anomaly
287.1833°
Rev number
1,614

§ Raw data

STARLINK-376411 69445U 26127C   26263.16590735  .00019167  00000+0  57654-3 0  99942 69445  53.1567 167.0780 0001020  72.9281 287.1833 15.34422624 16145

JSON: /api/v1/satellites/69445 · /tle

For live sub-satellite position, see the globe view (requires WebGL).

§ Visibility from observer

Set your observer location to see the next 7 days of passes ≥ 10°. The values pass through the URL so the page stays shareable.

No JS? Fill the form by hand. The geolocation button needs JavaScript.